O/OREOS (USA 219) - Orbit

View from above orbital plane
View from above orbital plane
View from above satellite
View from above satellite

Ground track
Ground track

The orbit data is extracted from the following two-line orbital elements,

1 37224U 10062C   11153.29456974 0.00000492  00000-0  00000-0 0    02
2 37224  71.9726  71.8135 0020315 307.7637  52.1684 14.77036357    00
Epoch (UTC): 02 June 2011 07:04:10
Eccentricity: 0.0020315
inclination: 71.9726°
perigee height: 624 km
apogee height: 653 km
right ascension of ascending node: 71.8135°
argument of perigee: 307.7637°
revolutions per day: 14.77036357
mean anomaly at epoch: 52.1684°
orbit number at epoch: 0

The dashed part of the orbit path shows where the satellite is in the earth's shadow,  

Developed and maintained by Chris Peat, Heavens-Above GmbH. Please read the updated FAQ before sending e-mail. Imprint. DLR